Location: Kunchanapalle
(16.4623°N, 80.6176°E)
Time: 14:29:02
(UTC+00:00)

ARGOS - Pass Details

Date: 13 August 2020
Orbit: 820 x 835 km, 98.5° (Epoch: 24 September)

Event Time Altitude Azimuth Distance (km) Brightness Sun altitude
Exits shadow 13:32:18 - 132° (SE) 2,781 5.3 -7.5°
Reaches altitude 10° 13:33:24 10° 126° (SE) 2,429 5.0 -7.7°
Maximum altitude 13:37:37 24° 74° (ENE) 1,655 4.3 -8.7°
Drops below altitude 10° 13:41:50 10° 22° (NNE) 2,424 5.6 -9.7°
Sets 13:44:35 0° 8° (N) 3,355 6.5 -10.3°
